Location: Ocean City
(38.3360°N, 75.0850°W)
Time: 05:08:52
(UTC-05:00)

Explorer 11/Cluster Stage 4 - Pass Details

Date: 17 November 2019
Orbit: 467 x 1259 km, 28.8° (Epoch: 15 December)

Event Time Altitude Azimuth Distance (km) Brightness Sun altitude
Rises 20:16:35 0° 231° (SW) 3,309 10.3 -41.1°
Enters shadow 20:18:51 - 221° (SW) 2,612 9.5 -41.5°
Reaches altitude 10° 20:19:13 10° 219° (SW) 2,509 - -41.6°
Maximum altitude 20:24:23 28° 162° (SSE) 1,747 - -42.6°
Drops below altitude 10° 20:30:27 10° 106° (ESE) 2,983 - -43.8°
Sets 20:33:52 0° 96° (E) 4,047 - -44.4°
